FW5436 Weather Reports


Display with metric or nautical units.
time (UTC)temp
F
wind
direction
speed
MPH
gust
MPH
rain 1hr
in
rain 24hr
in
rain mn
in
humidity
%
barometer
mb
20260507210512 62 0 0.0 0.0 0.00 0.00 0.65 87 995.5
20260507205956 62 0 0.0 2.0 0.00 0.00 0.65 86 995.6
20260507205447 62 0 0.0 2.0 0.00 0.00 0.65 86 995.6
20260507204936 62 68 1.0 2.0 0.00 0.00 0.65 86 995.6
20260507203916 62 68 2.0 4.0 0.00 0.00 0.65 86 995.6
20260507203405 62 293 2.0 4.0 0.00 0.00 0.65 86 995.8
20260507202349 62 45 2.0 4.0 0.00 0.00 0.65 86 996.3
20260507201326 62 90 2.0 6.0 0.00 0.00 0.65 86 996.3
20260507200815 62 45 2.0 6.0 0.00 0.00 0.65 86 996.2
20260507195754 62 45 1.0 6.0 0.00 0.00 0.65 86 996.2
20260507195254 62 113 3.0 6.0 0.00 0.00 0.65 86 996.1
20260507194224 63 45 2.0 9.0 0.00 0.00 0.65 85 996.2
20260507193714 62 68 2.0 11.0 0.00 0.00 0.65 85 996.1
20260507193204 62 68 5.0 11.0 0.00 0.00 0.65 86 996.1
20260507192653 62 68 4.0 7.0 0.00 0.00 0.65 86 996.0
20260507192144 62 45 2.0 7.0 0.00 0.00 0.65 86 995.7
20260507191635 62 68 2.0 8.0 0.00 0.00 0.65 86 995.6
20260507191124 62 113 4.0 8.0 0.00 0.00 0.65 86 995.5
20260507190117 62 23 2.0 7.0 0.00 0.00 0.65 86 995.3
20260507185554 62 270 2.0 8.0 0.00 0.00 0.65 86 995.5
20260507185043 63 0 3.0 8.0 0.00 0.00 0.65 86 996.0
20260507184532 63 90 3.0 11.0 0.00 0.00 0.65 85 995.9
20260507183002 63 68 3.0 6.0 0.00 0.00 0.65 86 995.6
20260507182452 62 45 2.0 8.0 0.00 0.00 0.65 86 995.6
20260507181939 62 68 2.0 8.0 0.00 0.00 0.65 86 995.8
20260507181430 62 23 3.0 11.0 0.00 0.00 0.65 86 996.1
20260507180411 62 68 2.0 8.0 0.00 0.00 0.65 87 996.1
20260507175902 62 158 3.0 8.0 0.00 0.00 0.65 87 996.1
20260507175352 62 23 4.0 9.0 0.00 0.00 0.65 87 996.3
20260507174846 62 23 4.0 9.0 0.00 0.00 0.65 87 996.4
20260507174331 62 68 5.0 11.0 0.00 0.00 0.65 87 996.5
20260507173826 62 68 3.0 11.0 0.00 0.00 0.65 87 996.2
20260507172801 62 135 4.0 11.0 0.00 0.00 0.65 87 995.9
20260507172250 62 338 2.0 11.0 0.00 0.00 0.65 87 995.6
20260507171740 62 158 3.0 11.0 0.00 0.00 0.65 87 995.8
20260507171230 62 180 4.0 11.0 0.00 0.00 0.65 87 995.5
20260507170209 62 68 2.0 9.0 0.00 0.00 0.65 88 995.5
20260507165700 62 23 3.0 9.0 0.00 0.00 0.65 88 995.5
20260507165149 62 338 5.0 11.0 0.00 0.00 0.65 88 995.4
20260507164639 62 23 4.0 11.0 0.00 0.00 0.65 88 995.3
20260507164132 62 90 4.0 9.0 0.00 0.00 0.65 88 995.4
20260507163619 62 68 4.0 11.0 0.00 0.00 0.65 88 995.7
20260507163110 62 45 3.0 13.0 0.00 0.00 0.65 88 995.7
20260507162559 62 68 4.0 13.0 0.00 0.00 0.65 88 995.7
20260507162049 62 45 4.0 11.0 0.00 0.00 0.65 88 995.7
20260507161539 62 68 5.0 8.0 0.00 0.00 0.65 89 995.7
20260507160007 62 68 4.0 11.0 0.00 0.00 0.65 89 996.0
20260507155458 62 23 3.0 11.0 0.00 0.00 0.65 89 995.9
20260507154437 62 23 4.0 7.0 0.00 0.00 0.65 89 996.3
20260507153927 62 90 2.0 8.0 0.00 0.00 0.65 89 996.1
20260507153417 62 68 3.0 8.0 0.00 0.00 0.65 89 996.4
20260507152907 62 45 2.0 8.0 0.00 0.00 0.65 89 996.5
20260507151847 62 68 2.0 11.0 0.00 0.00 0.65 90 997.0
20260507151337 62 68 5.0 11.0 0.00 0.00 0.65 90 997.1
20260507150826 62 68 1.0 7.0 0.00 0.00 0.65 90 996.9
20260507145256 61 68 4.0 9.0 0.00 0.00 0.65 90 997.6
20260507144236 61 45 3.0 9.0 0.00 0.00 0.65 91 997.0
20260507143726 61 45 4.0 9.0 0.00 0.00 0.65 91 996.8
20260507143215 61 68 2.0 8.0 0.00 0.00 0.65 91 996.5
20260507142705 61 135 2.0 9.0 0.00 0.00 0.65 92 996.3
20260507141644 61 338 2.0 6.0 0.00 0.00 0.65 92 996.2
20260507141135 60 113 2.0 6.0 0.00 0.00 0.65 92 996.6
20260507140626 60 68 2.0 7.0 0.00 0.00 0.65 93 996.5
20260507140114 60 68 2.0 7.0 0.00 0.00 0.65 93 996.4
20260507135605 60 68 2.0 8.0 0.00 0.00 0.65 93 996.7
20260507135059 60 45 2.0 8.0 0.00 0.00 0.65 93 996.4
20260507134544 60 0 3.0 8.0 0.00 0.00 0.65 93 996.5
20260507134034 60 68 3.0 6.0 0.00 0.00 0.65 93 996.5
20260507133524 60 45 2.0 7.0 0.00 0.00 0.65 93 996.6
20260507132504 60 45 2.0 9.0 0.00 0.00 0.65 93 997.0
20260507131953 60 68 3.0 9.0 0.00 0.00 0.65 93 997.5
20260507131444 60 68 3.0 9.0 0.00 0.00 0.65 93 997.9
20260507130933 60 68 3.0 13.0 0.00 0.00 0.65 93 997.7
20260507130428 60 23 4.0 13.0 0.00 0.00 0.65 93 997.7
20260507125916 60 90 2.0 9.0 0.00 0.00 0.65 93 997.2
20260507125402 59 0 4.0 9.0 0.00 0.00 0.65 92 997.0
20260507124343 59 45 2.0 14.0 0.00 0.00 0.65 93 996.8
20260507123832 59 113 4.0 14.0 0.00 0.00 0.65 93 996.7
20260507123322 59 68 3.0 11.0 0.00 0.00 0.65 93 996.3
20260507122812 59 135 4.0 11.0 0.00 0.00 0.65 93 996.6
20260507122306 59 338 3.0 11.0 0.00 0.00 0.65 94 996.6
20260507121751 58 68 3.0 11.0 0.00 0.00 0.65 94 996.4
20260507121241 58 113 5.0 11.0 0.00 0.00 0.65 94 996.5
20260507120221 58 45 6.0 11.0 0.00 0.00 0.65 95 996.5
20260507115711 59 90 3.0 11.0 0.00 0.00 0.65 95 995.9
20260507115201 59 0 3.0 11.0 0.00 0.00 0.65 95 995.7
20260507114651 58 338 4.0 11.0 0.00 0.00 0.65 95 995.5
20260507114144 58 45 4.0 9.0 0.00 0.00 0.65 95 995.2
20260507113631 58 248 3.0 11.0 0.00 0.00 0.65 95 995.0
20260507113121 58 68 4.0 11.0 0.00 0.00 0.65 95 995.5
20260507112610 58 338 2.0 11.0 0.00 0.00 0.65 95 994.9
20260507111549 58 113 4.0 11.0 0.00 0.00 0.65 95 994.4
20260507110529 58 45 3.0 14.0 0.00 0.00 0.65 95 995.2
20260507105509 58 90 5.0 11.0 0.00 0.00 0.65 95 995.6
20260507104959 58 45 4.0 11.0 0.00 0.00 0.65 95 995.8
20260507104449 58 23 4.0 11.0 0.00 0.00 0.65 95 996.1
20260507103939 58 45 4.0 11.0 0.00 0.00 0.65 95 995.9
20260507103429 58 113 4.0 11.0 0.00 0.00 0.65 95 996.3
20260507102408 58 0 4.0 11.0 0.00 0.00 0.65 95 996.1
20260507101858 58 90 4.0 11.0 0.00 0.00 0.65 95 995.9
20260507101349 58 45 4.0 11.0 0.00 0.00 0.65 95 995.3
20260507100838 58 90 4.0 9.0 0.00 0.00 0.65 94 994.7
20260507100328 58 23 4.0 9.0 0.00 0.00 0.65 94 995.0
20260507095817 58 315 4.0 9.0 0.00 0.00 0.65 94 994.2
20260507094758 58 68 4.0 11.0 0.00 0.00 0.65 94 995.2
20260507094247 59 23 4.0 11.0 0.00 0.00 0.65 94 995.4
20260507093737 59 113 4.0 11.0 0.00 0.00 0.65 94 995.4
20260507093227 59 90 4.0 11.0 0.00 0.00 0.65 94 995.2
20260507092717 59 90 4.0 11.0 0.00 0.00 0.65 93 995.5
20260507092206 59 315 4.0 9.0 0.00 0.00 0.65 93 995.0
20260507091701 60 68 4.0 11.0 0.00 0.00 0.65 93 994.6
20260507091146 60 0 4.0 11.0 0.00 0.00 0.65 93 995.4
20260507090638 60 23 3.0 11.0 0.00 0.00 0.65 93 995.3
20260507085616 61 23 7.0 9.0 0.00 0.00 0.65 93 996.3
20260507085106 61 45 2.0 8.0 0.00 0.00 0.65 93 995.0
20260507084555 62 90 1.0 4.0 0.00 0.00 0.65 92 994.7
20260507084046 62 135 0.0 2.0 0.00 0.00 0.65 92 993.6
20260507083537 62 135 1.0 6.0 0.00 0.00 0.65 92 993.4
20260507083025 62 315 1.0 8.0 0.00 0.00 0.65 92 994.4
20260507082515 62 45 2.0 9.0 0.00 0.00 0.65 92 997.1
20260507082010 62 315 2.0 9.0 0.00 0.00 0.65 91 998.0
20260507081455 63 68 3.0 11.0 0.00 0.00 0.65 91 998.2
20260507080945 63 68 3.0 13.0 0.00 0.00 0.65 91 998.3
20260507080434 63 45 5.0 13.0 0.00 0.00 0.65 91 998.3
20260507075414 63 45 4.0 14.0 0.00 0.00 0.65 91 997.7
20260507074904 63 68 6.0 14.0 0.00 0.00 0.65 91 997.6
20260507072823 63 68 4.0 14.0 0.00 0.00 0.65 92 997.0
20260507072313 63 45 6.0 14.0 0.00 0.00 0.65 93 997.2
20260507071803 63 45 8.0 13.0 0.00 0.00 0.65 94 997.1
20260507071254 63 68 4.0 14.0 0.00 0.00 0.65 94 996.5
20260507070743 63 45 4.0 14.0 0.00 0.00 0.65 95 996.2
20260507065724 63 90 3.0 11.0 0.00 0.00 0.65 96 995.7
20260507065212 63 68 3.0 11.0 0.00 0.00 0.65 96 996.2
20260507064702 63 0 4.0 13.0 0.00 0.00 0.65 96 996.6
20260507064152 63 45 3.0 16.0 0.00 0.00 0.65 96 996.3
20260507063642 63 68 7.0 16.0 0.00 0.00 0.65 96 996.8
20260507063132 63 90 6.0 16.0 0.00 0.00 0.65 96 996.6
20260507062622 63 45 7.0 11.0 0.00 0.00 0.65 97 996.3
20260507062111 63 90 4.0 11.0 0.00 0.00 0.65 97 996.2
20260507061602 63 293 4.0 11.0 0.00 0.00 0.65 97 995.9
20260507061051 63 68 4.0 11.0 0.00 0.00 0.65 97 995.9
20260507060542 63 68 2.0 11.0 0.00 0.00 0.65 97 995.6
20260507060031 63 45 2.0 6.0 0.00 0.00 0.65 97 996.1
20260507055521 63 68 3.0 6.0 0.00 0.00 0.65 97 995.8
20260507055011 63 135 2.0 4.0 0.00 0.00 0.65 97 996.0
20260507054500 64 135 1.0 7.0 0.00 0.00 0.65 97 995.5
20260507053446 64 203 1.0 2.0 0.00 0.00 0.65 97 995.4
20260507052829 64 23 2.0 6.0 0.01 0.71 0.65 97 995.8
20260507052319 64 68 2.0 6.0 0.01 0.71 0.65 97 996.1
20260507051808 64 45 2.0 6.0 0.01 0.71 0.65 97 996.3
20260507051258 64 0 2.0 6.0 0.01 0.71 0.65 97 996.5
20260507050749 64 68 3.0 4.0 0.02 0.71 0.65 97 996.7
20260507050238 64 68 3.0 4.0 0.02 0.71 0.65 97 996.7
20260507045728 64 45 2.0 6.0 0.04 0.71 0.65 97 996.5
20260507045218 64 23 1.0 6.0 0.05 0.71 0.65 97 996.7
20260507043647 64 90 2.0 4.0 0.06 0.70 0.64 97 997.3
20260507043137 64 90 1.0 2.0 0.06 0.70 0.64 97 997.3
20260507042632 64 68 0.0 2.0 0.07 0.70 0.64 97 997.1
20260507042117 64 68 0.0 2.0 0.07 0.70 0.64 96 997.3
20260507041607 64 23 1.0 4.0 0.14 0.70 0.64 96 997.6
20260507041057 64 180 1.0 4.0 0.24 0.69 0.63 96 997.9
20260507040547 64 113 1.0 4.0 0.44 0.69 0.63 96 998.0
20260507035526 64 113 1.0 2.0 0.64 0.67 0.61 96 997.2
20260507035018 64 90 1.0 4.0 0.63 0.66 0.60 96 997.0
20260507034513 64 68 0.0 4.0 0.61 0.65 0.59 96 997.1
20260507033956 64 248 0.0 2.0 0.60 0.64 0.58 96 996.9
20260507033446 64 68 1.0 2.0 0.60 0.64 0.58 96 997.1
20260507032936 64 68 1.0 4.0 0.60 0.64 0.58 96 997.4
20260507031915 65 90 3.0 11.0 0.58 0.61 0.56 95 998.2
20260507031405 65 90 2.0 16.0 0.53 0.56 0.50 95 998.1
20260507030344 66 45 6.0 16.0 0.15 0.18 0.12 92 1000.1
20260507025834 67 68 6.0 13.0 0.02 0.05 0.05 90 999.2
20260507025325 72 68 6.0 13.0 0.01 0.04 0.04 87 999.4
20260507024814 71 180 4.0 13.0 0.01 0.04 0.04 90 996.8
20260507024304 71 0 4.0 11.0 0.01 0.04 0.04 91 996.4
20260507023754 70 45 5.0 14.0 0.01 0.04 0.04 91 996.8
20260507023244 70 113 6.0 14.0 0.01 0.04 0.04 92 996.9
20260507022735 70 90 3.0 16.0 0.01 0.04 0.04 92 996.8
20260507022225 69 90 4.0 16.0 0.01 0.04 0.04 92 996.6
20260507021713 69 45 5.0 13.0 0.00 0.02 0.02 92 996.5
20260507021203 69 180 5.0 15.0 0.00 0.02 0.02 92 996.7
20260507020143 69 158 4.0 15.0 0.00 0.02 0.02 93 996.5
20260507015633 69 315 5.0 16.0 0.00 0.02 0.02 93 996.2
20260507014103 68 180 4.0 15.0 0.00 0.02 0.02 93 996.4
20260507013552 68 315 4.0 20.0 0.00 0.02 0.02 94 996.7
20260507012532 67 158 2.0 11.0 0.00 0.02 0.02 94 997.1
20260507012021 67 180 4.0 11.0 0.00 0.02 0.02 94 997.0
20260507011519 67 45 4.0 14.0 0.00 0.02 0.02 94 997.0
20260507011002 67 270 4.0 14.0 0.00 0.02 0.02 94 996.6
20260507010452 67 158 4.0 11.0 0.00 0.02 0.02 94 996.8
20260507005941 66 203 3.0 11.0 0.00 0.02 0.02 94 997.1
20260507004920 66 293 4.0 13.0 0.00 0.02 0.02 95 997.0
20260507004410 66 45 4.0 13.0 0.00 0.02 0.02 95 997.2
20260507003901 66 68 3.0 14.0 0.00 0.02 0.02 95 997.2
20260507003350 66 113 3.0 14.0 0.00 0.02 0.02 95 997.4
20260507002841 66 23 4.0 11.0 0.00 0.02 0.02 95 997.4
20260507002330 65 68 4.0 11.0 0.00 0.02 0.02 95 997.3
20260507001827 65 225 4.0 11.0 0.00 0.02 0.02 96 997.1
20260507001310 65 203 4.0 14.0 0.00 0.02 0.02 96 996.9
20260507000801 65 68 4.0 14.0 0.00 0.02 0.02 96 996.9
20260507000250 65 158 4.0 13.0 0.00 0.02 0.02 96 997.0
20260506235740 65 315 4.0 16.0 0.00 0.02 0.02 96 997.6
20260506235230 65 203 3.0 16.0 0.00 0.02 0.02 96 997.5
20260506234719 65 135 5.0 15.0 0.00 0.02 0.02 96 997.8
20260506234209 65 0 4.0 17.0 0.00 0.02 0.02 96 998.0
20260506233659 65 90 4.0 17.0 0.00 0.02 0.02 96 998.2
20260506233149 65 113 5.0 18.0 0.00 0.02 0.02 96 998.4
20260506232129 65 203 5.0 18.0 0.00 0.02 0.02 96 998.8
20260506231619 65 203 6.0 16.0 0.00 0.02 0.02 96 999.2
20260506231108 65 248 7.0 16.0 0.00 0.02 0.02 96 999.3
20260506230558 65 225 3.0 13.0 0.00 0.02 0.02 96 999.6
20260506225538 65 113 2.0 16.0 0.00 0.02 0.02 96 999.9
20260506225027 65 293 3.0 15.0 0.00 0.02 0.02 96 1000.2
20260506224522 65 293 4.0 15.0 0.00 0.02 0.02 96 1000.2
20260506224008 65 225 6.0 16.0 0.00 0.02 0.02 96 1000.6
20260506223457 65 45 5.0 16.0 0.00 0.02 0.02 96 1000.9
20260506222438 65 90 3.0 9.0 0.00 0.02 0.02 96 1001.0
20260506221926 65 180 2.0 11.0 0.00 0.02 0.02 96 1001.1
20260506220907 65 293 3.0 11.0 0.00 0.02 0.02 96 1001.2
20260506220356 65 158 3.0 11.0 0.00 0.02 0.02 96 1001.6
20260506215846 65 248 3.0 11.0 0.00 0.02 0.02 96 1002.0
20260506215336 65 45 2.0 11.0 0.00 0.02 0.02 96 1002.2
20260506214826 65 158 4.0 11.0 0.00 0.02 0.02 96 1002.4
20260506214316 65 293 2.0 8.0 0.00 0.02 0.02 96 1002.6
20260506213806 65 23 2.0 9.0 0.00 0.02 0.02 96 1002.8
20260506213256 65 203 3.0 11.0 0.00 0.02 0.02 96 1003.0
20260506211725 65 225 2.0 7.0 0.00 0.02 0.02 96 1003.3
20260506211214 65 0 3.0 8.0 0.00 0.02 0.02 96 1003.6